Location: Csohesd
(46.2500°N, 22.6167°E)
Time: 15:02:18
(UTC+00:00)

SL-19 R/B - Pass Details

Date: 29 May 2022
Orbit: 874 x 1208 km, 100.6° (Epoch: 03 July)

Event Time Altitude Azimuth Distance (km) Brightness Sun altitude
Rises 02:02:59 0° 92° (E) 3,643 8.3 -6.4°
Reaches altitude 10° 02:07:15 10° 63° (ENE) 2,777 8.5 -5.9°
Maximum altitude 02:09:19 12° 43° (NE) 2,684 8.5 -5.6°
Drops below altitude 10° 02:11:26 10° 23° (NNE) 2,858 8.1 -5.3°
Sets 02:15:59 0° 355° (N) 3,902 8.2 -4.7°
